Time,TemperatureF,DewpointF,PressureIn,WindDirection,WindDirectionDegrees,WindSpeedMPH,WindSpeedGustMPH,Humidity,HourlyPrecipIn,Conditions,Clouds,dailyrainin,SolarRadiationWatts/m^2,SoftwareType,DateUTC
2013-02-26 00:02:00,59.0,49.0,-100.00,West,266,8.0,21.0,69,0.00,,,0.43,0.000000,,2013-02-26 06:02:00,
2013-02-26 00:32:00,54.0,42.0,-100.00,West,264,6.0,19.0,63,0.00,,,0.41,0.000000,,2013-02-26 06:32:00,
2013-02-26 00:42:00,54.0,42.0,-100.00,West,264,6.0,19.0,63,0.00,,,0.41,0.000000,,2013-02-26 06:42:00,
2013-02-26 00:52:00,54.0,42.0,-100.00,West,264,6.0,19.0,63,0.00,,,0.41,0.000000,,2013-02-26 06:52:00,
2013-02-26 01:01:00,54.0,42.0,-100.00,West,264,6.0,19.0,63,0.00,,,0.41,0.000000,,2013-02-26 07:01:00,
2013-02-26 01:32:00,51.0,37.0,-100.00,WSW,258,9.0,17.0,59,0.00,,,0.24,0.000000,,2013-02-26 07:32:00,
2013-02-26 01:42:00,51.0,37.0,-100.00,WSW,258,9.0,17.0,59,0.00,,,0.24,0.000000,,2013-02-26 07:42:00,
2013-02-26 01:52:00,51.0,37.0,-100.00,WSW,258,9.0,17.0,59,0.00,,,0.24,0.000000,,2013-02-26 07:52:00,
2013-02-26 02:02:00,51.0,37.0,-100.00,WSW,258,9.0,17.0,59,0.00,,,0.24,0.000000,,2013-02-26 08:02:00,
2013-02-26 02:32:00,48.0,34.0,-100.00,WSW,245,5.0,16.0,58,0.00,,,0.17,0.000000,,2013-02-26 08:32:00,
2013-02-26 02:42:00,48.0,34.0,-100.00,WSW,245,5.0,16.0,58,0.00,,,0.17,0.000000,,2013-02-26 08:42:00,
2013-02-26 02:52:00,48.0,34.0,-100.00,WSW,245,5.0,16.0,58,0.00,,,0.17,0.000000,,2013-02-26 08:52:00,
2013-02-26 03:02:00,48.0,34.0,-100.00,WSW,245,5.0,16.0,58,0.00,,,0.17,0.000000,,2013-02-26 09:02:00,
2013-02-26 03:32:00,47.0,33.0,-100.00,WSW,255,8.0,17.0,59,0.00,,,0.17,0.000000,,2013-02-26 09:32:00,
2013-02-26 03:43:00,47.0,33.0,-100.00,WSW,255,8.0,17.0,59,0.00,,,0.17,0.000000,,2013-02-26 09:43:00,
2013-02-26 03:52:00,47.0,33.0,-100.00,WSW,255,8.0,17.0,59,0.00,,,0.17,0.000000,,2013-02-26 09:52:00,
2013-02-26 04:01:00,47.0,33.0,-100.00,WSW,255,8.0,17.0,59,0.00,,,0.17,0.000000,,2013-02-26 10:01:00,
2013-02-26 04:32:00,45.0,34.0,-100.00,WSW,255,9.0,16.0,65,0.00,,,0.11,0.000000,,2013-02-26 10:32:00,
2013-02-26 04:42:00,45.0,34.0,-100.00,WSW,255,9.0,16.0,65,0.00,,,0.11,0.000000,,2013-02-26 10:42:00,
2013-02-26 04:52:00,45.0,34.0,-100.00,WSW,255,9.0,16.0,65,0.00,,,0.11,0.000000,,2013-02-26 10:52:00,
2013-02-26 05:01:00,45.0,34.0,-100.00,WSW,255,9.0,16.0,65,0.00,,,0.11,0.000000,,2013-02-26 11:01:00,
2013-02-26 05:32:00,44.0,33.0,-100.00,WSW,238,7.0,20.0,64,0.00,,,0.10,0.000000,,2013-02-26 11:32:00,
2013-02-26 05:42:00,44.0,33.0,-100.00,WSW,238,7.0,20.0,64,0.00,,,0.10,0.000000,,2013-02-26 11:42:00,
2013-02-26 05:52:00,44.0,33.0,-100.00,WSW,238,7.0,20.0,64,0.00,,,0.10,0.000000,,2013-02-26 11:52:00,
2013-02-26 06:01:00,44.0,33.0,-100.00,WSW,238,7.0,20.0,64,0.00,,,0.10,0.000000,,2013-02-26 12:01:00,
2013-02-26 06:32:00,44.0,33.0,-100.00,WSW,250,5.0,14.0,66,0.00,,,0.09,0.000000,,2013-02-26 12:32:00,
2013-02-26 06:42:00,44.0,33.0,-100.00,WSW,250,5.0,14.0,66,0.00,,,0.09,0.000000,,2013-02-26 12:42:00,
2013-02-26 06:53:00,44.0,33.0,-100.00,WSW,250,5.0,14.0,66,0.00,,,0.09,0.000000,,2013-02-26 12:53:00,
2013-02-26 07:01:00,44.0,33.0,-100.00,WSW,250,5.0,14.0,66,0.00,,,0.09,0.000000,,2013-02-26 13:01:00,
2013-02-26 07:32:00,44.0,33.0,-100.00,WSW,239,5.0,10.0,66,0.00,,,0.09,7.000000,,2013-02-26 13:32:00,
2013-02-26 07:42:00,44.0,33.0,-100.00,WSW,239,5.0,10.0,66,0.00,,,0.09,7.000000,,2013-02-26 13:42:00,
2013-02-26 07:52:00,44.0,33.0,-100.00,WSW,239,5.0,10.0,66,0.00,,,0.09,7.000000,,2013-02-26 13:52:00,
2013-02-26 08:01:00,44.0,33.0,-100.00,WSW,239,5.0,10.0,66,0.00,,,0.09,7.000000,,2013-02-26 14:01:00,
2013-02-26 08:32:00,46.0,35.0,-100.00,WSW,252,6.0,13.0,66,0.00,,,0.09,61.000000,,2013-02-26 14:32:00,
2013-02-26 08:42:00,46.0,35.0,-100.00,WSW,252,6.0,13.0,66,0.00,,,0.09,61.000000,,2013-02-26 14:42:00,
2013-02-26 08:52:00,46.0,35.0,-100.00,WSW,252,6.0,13.0,66,0.00,,,0.09,61.000000,,2013-02-26 14:52:00,
2013-02-26 09:02:00,46.0,35.0,-100.00,WSW,252,6.0,13.0,66,0.00,,,0.09,61.000000,,2013-02-26 15:02:00,
2013-02-26 09:32:00,47.0,34.0,-100.00,WSW,256,8.0,18.0,61,0.00,,,0.09,142.000000,,2013-02-26 15:32:00,
2013-02-26 09:42:00,47.0,34.0,-100.00,WSW,256,8.0,18.0,61,0.00,,,0.09,142.000000,,2013-02-26 15:42:00,
2013-02-26 09:52:00,47.0,34.0,-100.00,WSW,256,8.0,18.0,61,0.00,,,0.09,142.000000,,2013-02-26 15:52:00,
2013-02-26 10:01:00,47.0,34.0,-100.00,WSW,256,8.0,18.0,61,0.00,,,0.09,142.000000,,2013-02-26 16:01:00,
2013-02-26 10:32:00,48.0,34.0,-100.00,West,260,9.0,19.0,58,0.00,,,0.09,213.000000,,2013-02-26 16:32:00,
2013-02-26 10:42:00,48.0,34.0,-100.00,West,260,9.0,19.0,58,0.00,,,0.09,213.000000,,2013-02-26 16:42:00,
2013-02-26 10:52:00,48.0,34.0,-100.00,West,260,9.0,19.0,58,0.00,,,0.09,213.000000,,2013-02-26 16:52:00,
2013-02-26 11:01:00,48.0,34.0,-100.00,West,260,9.0,19.0,58,0.00,,,0.09,213.000000,,2013-02-26 17:01:00,
2013-02-26 11:32:00,49.0,33.0,-100.00,WSW,256,10.0,21.0,54,0.00,,,0.09,305.000000,,2013-02-26 17:32:00,
2013-02-26 11:42:00,49.0,33.0,-100.00,WSW,256,10.0,21.0,54,0.00,,,0.09,305.000000,,2013-02-26 17:42:00,
2013-02-26 11:52:00,49.0,33.0,-100.00,WSW,256,10.0,21.0,54,0.00,,,0.09,305.000000,,2013-02-26 17:52:00,
2013-02-26 12:01:00,49.0,33.0,-100.00,WSW,256,10.0,21.0,54,0.00,,,0.09,305.000000,,2013-02-26 18:01:00,
2013-02-26 12:32:00,54.0,35.0,-100.00,West,276,9.0,20.0,49,0.00,,,0.09,728.000000,,2013-02-26 18:32:00,
2013-02-26 12:42:00,54.0,35.0,-100.00,West,276,9.0,20.0,49,0.00,,,0.09,728.000000,,2013-02-26 18:42:00,
2013-02-26 12:52:00,54.0,35.0,-100.00,West,276,9.0,20.0,49,0.00,,,0.09,728.000000,,2013-02-26 18:52:00,
2013-02-26 13:01:00,54.0,35.0,-100.00,West,276,9.0,20.0,49,0.00,,,0.09,728.000000,,2013-02-26 19:01:00,
2013-02-26 13:32:00,56.0,36.0,-100.00,WSW,254,10.0,21.0,46,0.00,,,0.09,873.000000,,2013-02-26 19:32:00,
2013-02-26 13:42:00,56.0,36.0,-100.00,WSW,254,10.0,21.0,46,0.00,,,0.09,873.000000,,2013-02-26 19:42:00,
2013-02-26 13:52:00,56.0,36.0,-100.00,WSW,254,10.0,21.0,46,0.00,,,0.09,873.000000,,2013-02-26 19:52:00,
2013-02-26 14:01:00,56.0,36.0,-100.00,WSW,254,10.0,21.0,46,0.00,,,0.09,873.000000,,2013-02-26 20:01:00,
2013-02-26 16:32:00,57.0,35.0,-100.00,West,276,7.0,19.0,44,-99.99,,,0.05,457.000000,,2013-02-26 22:32:00,
2013-02-26 16:42:00,57.0,35.0,-100.00,West,276,7.0,19.0,44,-99.99,,,0.05,457.000000,,2013-02-26 22:42:00,
2013-02-26 16:52:00,57.0,35.0,-100.00,West,276,7.0,19.0,44,-99.99,,,0.05,457.000000,,2013-02-26 22:52:00,
2013-02-26 17:01:00,57.0,35.0,-100.00,West,276,7.0,19.0,44,-99.99,,,0.05,457.000000,,2013-02-26 23:01:00,
2013-02-26 17:32:00,54.0,35.0,-100.00,WNW,290,8.0,17.0,48,0.00,,,0.05,216.000000,,2013-02-26 23:32:00,
2013-02-26 17:42:00,54.0,35.0,-100.00,WNW,290,8.0,17.0,48,0.00,,,0.05,216.000000,,2013-02-26 23:42:00,
2013-02-26 17:52:00,54.0,35.0,-100.00,WNW,290,8.0,17.0,48,0.00,,,0.05,216.000000,,2013-02-26 23:52:00,
2013-02-26 18:01:00,54.0,35.0,-100.00,WNW,290,8.0,17.0,48,0.00,,,0.05,216.000000,,2013-02-27 00:01:00,
2013-02-26 18:32:00,51.0,37.0,-100.00,West,280,2.0,9.0,58,0.00,,,0.05,37.000000,,2013-02-27 00:32:00,
2013-02-26 18:42:00,51.0,37.0,-100.00,West,280,2.0,9.0,58,0.00,,,0.05,37.000000,,2013-02-27 00:42:00,
2013-02-26 18:52:00,51.0,37.0,-100.00,West,280,2.0,9.0,58,0.00,,,0.05,37.000000,,2013-02-27 00:52:00,
2013-02-26 19:01:00,51.0,37.0,-100.00,West,280,2.0,9.0,58,0.00,,,0.05,37.000000,,2013-02-27 01:01:00,
2013-02-26 19:32:00,44.0,41.0,-100.00,SW,216,0.0,3.0,89,0.00,,,0.05,0.000000,,2013-02-27 01:32:00,
2013-02-26 19:42:00,44.0,41.0,-100.00,SW,216,0.0,3.0,89,0.00,,,0.05,0.000000,,2013-02-27 01:42:00,
2013-02-26 19:52:00,44.0,41.0,-100.00,SW,216,0.0,3.0,89,0.00,,,0.05,0.000000,,2013-02-27 01:52:00,
2013-02-26 20:01:00,44.0,41.0,-100.00,SW,216,0.0,3.0,89,0.00,,,0.05,0.000000,,2013-02-27 02:01:00,
2013-02-26 20:32:00,41.0,41.0,-100.00,SE,141,0.0,2.0,99,0.00,,,0.01,0.000000,,2013-02-27 02:32:00,
2013-02-26 20:42:00,41.0,41.0,-100.00,SE,141,0.0,2.0,99,0.00,,,0.01,0.000000,,2013-02-27 02:42:00,
2013-02-26 20:52:00,41.0,41.0,-100.00,SE,141,0.0,2.0,99,0.00,,,0.01,0.000000,,2013-02-27 02:52:00,
2013-02-26 21:02:00,41.0,41.0,-100.00,SE,141,0.0,2.0,99,0.00,,,0.01,0.000000,,2013-02-27 03:02:00,
2013-02-26 21:32:00,40.0,40.0,-100.00,WNW,283,0.0,0.0,100,0.00,,,0.01,0.000000,,2013-02-27 03:32:00,
2013-02-26 21:42:00,40.0,40.0,-100.00,WNW,283,0.0,0.0,100,0.00,,,0.01,0.000000,,2013-02-27 03:42:00,
2013-02-26 21:52:00,40.0,40.0,-100.00,WNW,283,0.0,0.0,100,0.00,,,0.01,0.000000,,2013-02-27 03:52:00,
2013-02-26 22:01:00,40.0,40.0,-100.00,WNW,283,0.0,0.0,100,0.00,,,0.01,0.000000,,2013-02-27 04:01:00,
2013-02-26 22:32:00,39.0,39.0,-100.00,ESE,108,0.0,2.0,100,0.00,,,0.00,0.000000,,2013-02-27 04:32:00,
2013-02-26 22:42:00,39.0,39.0,-100.00,ESE,108,0.0,2.0,100,0.00,,,0.00,0.000000,,2013-02-27 04:42:00,
2013-02-26 22:52:00,39.0,39.0,-100.00,ESE,108,0.0,2.0,100,0.00,,,0.00,0.000000,,2013-02-27 04:52:00,
2013-02-26 23:01:00,39.0,39.0,-100.00,ESE,108,0.0,2.0,100,0.00,,,0.00,0.000000,,2013-02-27 05:01:00,
2013-02-26 23:32:00,38.0,38.0,-100.00,SSE,161,0.0,0.0,100,0.00,,,0.00,0.000000,,2013-02-27 05:32:00,
2013-02-26 23:42:00,38.0,38.0,-100.00,SSE,161,0.0,0.0,100,0.00,,,0.00,0.000000,,2013-02-27 05:42:00,
2013-02-26 23:52:00,38.0,38.0,-100.00,SSE,161,0.0,0.0,100,0.00,,,0.00,0.000000,,2013-02-27 05:52:00,